Home   Weather   Kemerovo   Past weeks

Flag for Russia Past Weather in Kemerovo, Russia — Yesterday and Last 2 Weeks

Now
52 °F

Passing clouds.


Feels Like: 50 °F
Forecast: 37 / 55 °F
Wind: 6 mph from Southeast

Location: Kemerovo

Current Time: Sep 28, 2016 at 12:23:59 PM

Latest Report: Sep 28, 2016 at 12:00 PM


Visibility: N/A

Pressure: 30.07 "Hg

Humidity: 62%

Dew Point: 39 °F

Location of KemerovoLocation

Past Weather in Kemerovo — Graph

°F

Kemerovo Temperature Yesterday

Maximum temperature yesterday: 57 °F (at 4:00 PM)
Minimum temperature yesterday: 30 °F (at 7:00 AM)
Average temperature yesterday: 44 °F

High & Low Weather Summary for the Past Weeks

 TemperatureHumidityPressure
High73 °F (Sep 17, 4:30 PM)100% (Sep 14, 12:30 PM)30.30 "Hg (Sep 14, 12:30 PM)
Low30 °F (Sep 27, 7:00 AM)31% (Sep 24, 4:30 PM)29.86 "Hg (Sep 14, 5:30 AM)
Average54 °F73%30.08 "Hg
* Reported Sep 13 11:00 AM — Sep 28 11:00 AM, Kemerovo, Weather by CustomWeather, © 2016

Note: Actual official high and low records may vary slightly from our data, if they occured in-between our weather recording intervals... More about our weather records

Advertising

Kemerovo Weather History for the Previous 24 Hours

Scroll right to see more
 ConditionsComfort  
Time TempWeatherWind HumidityBarometerVisibility
11:00 AM
Wed, Sep 28
50 °FSunny.1 mph62%30.07 "Hg10 mi
10:30 AM48 °FSunny.6 mph66%30.07 "Hg10 mi
10:00 AM46 °FSunny.3 mph71%30.07 "Hg10 mi
9:30 AM41 °FClear.1 mph87%30.07 "Hg6 mi
9:00 AM39 °FClear.1 mph87%30.07 "Hg4 mi
8:30 AM37 °FClear.1 mph81%30.07 "HgN/A
8:00 AM36 °FClear.6 mph87%30.07 "Hg10 mi
7:30 AM36 °FClear.3 mph87%30.07 "HgN/A
7:00 AM34 °FClear.3 mph87%30.07 "Hg5 mi
6:30 AM34 °FClear.3 mph87%30.07 "Hg6 mi
6:00 AM34 °FClear.6 mph87%30.07 "HgN/A
5:30 AM36 °FClear.6 mph81%30.07 "HgN/A
5:00 AM36 °FClear.6 mph87%30.07 "Hg6 mi
4:30 AM37 °FClear.6 mph81%30.07 "Hg6 mi
4:00 AM37 °FClear.6 mph81%30.07 "Hg6 mi
3:30 AM36 °FClear.6 mph81%30.07 "Hg10 mi
3:00 AM37 °FClear.6 mph81%30.07 "Hg10 mi
2:30 AM39 °FClear.6 mph75%30.07 "Hg10 mi
2:00 AM39 °FClear.6 mph75%30.07 "Hg10 mi
1:30 AM37 °FClear.6 mph81%30.09 "Hg10 mi
1:00 AM39 °FClear.6 mph75%30.09 "Hg10 mi
12:30 AM39 °FClear.6 mph75%30.09 "Hg10 mi
12:00 AM41 °FClear.6 mph70%30.09 "Hg10 mi
11:30 PM
Tue, Sep 27
41 °FClear.8 mph70%30.09 "Hg10 mi
11:00 PM41 °FClear.8 mph70%30.09 "Hg10 mi
10:30 PM43 °FClear.8 mph66%30.09 "Hg10 mi
10:00 PM45 °FClear.8 mph61%30.09 "Hg10 mi
9:30 PM45 °FClear.6 mph61%30.09 "HgN/A
9:00 PM45 °FClear.8 mph61%30.09 "HgN/A
8:30 PM46 °FPassing clouds.6 mph62%30.09 "HgN/A
8:00 PM46 °FPassing clouds.6 mph62%30.09 "HgN/A
7:30 PM48 °FClear.6 mph58%30.09 "HgN/A
7:00 PM50 °FSunny.6 mph58%30.07 "Hg10 mi
6:30 PM54 °FSunny.6 mph51%30.07 "Hg10 mi
6:00 PM55 °FClear.No wind51%30.07 "HgN/A
5:30 PM57 °FClear.3 mph48%30.07 "HgN/A
5:00 PM57 °FClear.3 mph48%30.07 "HgN/A
4:30 PM55 °FClear.3 mph47%30.07 "HgN/A
4:00 PM57 °FClear.6 mph48%30.09 "Hg5 mi
3:30 PM55 °FClear.6 mph51%30.09 "Hg4 mi
3:00 PM55 °FClear.1 mph51%30.09 "Hg6 mi
2:30 PM55 °FClear.1 mph51%30.09 "Hg6 mi
2:00 PM55 °FClear.1 mph47%30.09 "Hg6 mi
1:30 PM54 °FClear.3 mph54%30.09 "HgN/A
1:00 PM52 °FClear.1 mph58%30.09 "Hg6 mi
12:30 PM50 °FClear.1 mph58%30.09 "HgN/A
12:00 PM48 °FClear.1 mph62%30.09 "Hg6 mi
Weather by CustomWeather, © 2016

See weather overviewHow to use our weather pages